Cheyenne, WY

6:27 AM MST on November 23, 2017 (GMT -0700)
Cheyenne

Weather History for KCYS - October, 2012

Change the Weather History Date:

Monday, October 8, 2012

  Actual Average Record
Temperature  
Mean Temperature 49 °F 49 °F  
Max Temperature 67 °F 62 °F 80 °F (1910)
Min Temperature 30 °F 36 °F 18 °F (1970)
Degree Days  
Heating Degree Days 16 16  
Month to date heating degree days 174 120  
Since 1 July heating degree days 344 401  
Cooling Degree Days 0 0  
Month to date cooling degree days 0 0  
Year to date cooling degree days 568 348  
Moisture  
Dew Point 12 °F    
Average Humidity 34    
Maximum Humidity 58    
Minimum Humidity 9    
Precipitation  
Precipitation 0.00 in 0.04 in 0.82 in (2011)
Month to date precipitation 0.20 0.29  
Year to date precipitation 8.63 14.22  
Snow  
Snow 0.00 in 0.10 in 6.00 in (2011)
Month to date snowfall 3.7 1.0  
Since 1 July snowfall 3.7 2.3  
Snow Depth 0.00 in    
Sea Level Pressure  
Sea Level Pressure 29.86 in    
Wind  
Wind Speed 13 mph (West)    
Max Wind Speed 24 mph    
Max Gust Speed 30 mph    
Visibility 10 miles    
Events Rain    
T = Trace of Precipitation, MM = Missing Value Source: NWS Daily Summary

Daily Weather History Graph

Daily Weather History Graph

Search for Another Location

Airport or City:

Trip Planner

Search our weather history database for the weather conditions in past years. The results will help you decide how hot, cold, wet, or windy it might be!

Date:

Astronomy

Oct. 08, 2012 Rise Set
Actual Time 7:03 AM MDT 6:28 PM MDT
Civil Twilight 6:36 AM MDT 6:56 PM MDT
Nautical Twilight 6:04 AM MDT 7:28 PM MDT
Astronomical Twilight 5:32 AM MDT 8:00 PM MDT
Moon No Moon Rise 2:23 PM MDT (10/8)
Length of Visible Light 12h 19m
Length of Day
11h 24m
Last Quarter, 46% of the Moon is Illuminated
Oct 8
Last Quarter
Oct 15
New
Oct 21
First Quarter
Oct 29
Full
Nov 6
Last Quarter

Hourly Weather History & Observations

Time (MDT) Temp. Windchill Dew Point Humidity Pressure Visibility Wind Dir Wind Speed Gust Speed Precip Events Conditions
12:53 AM 36.0 °F - 16.0 °F 44% 30.01 in 10.0 mi Calm Calm - N/A   Clear
1:53 AM 30.9 °F 22.2 °F 18.0 °F 59% 30.02 in 10.0 mi SW 10.4 mph - N/A   Clear
2:53 AM 32.0 °F 23.6 °F 15.1 °F 50% 29.98 in 10.0 mi West 10.4 mph - N/A   Clear
3:53 AM 37.0 °F 28.1 °F 12.9 °F 37% 29.93 in 10.0 mi West 15.0 mph - N/A   Clear
4:53 AM 39.9 °F 33.9 °F 8.1 °F 27% 29.92 in 10.0 mi WNW 9.2 mph - N/A   Clear
5:53 AM 37.9 °F 31.5 °F 10.0 °F 32% 29.92 in 10.0 mi WSW 9.2 mph - N/A   Clear
6:53 AM 39.0 °F 31.8 °F 10.0 °F 30% 29.94 in 10.0 mi SW 11.5 mph - N/A   Clear
7:53 AM 44.1 °F 40.8 °F 10.0 °F 25% 29.94 in 10.0 mi SW 5.8 mph - N/A   Clear
8:53 AM 51.1 °F - 10.0 °F 19% 29.93 in 10.0 mi West 16.1 mph - 0.00 in Rain Light Rain
9:53 AM 55.9 °F - 8.1 °F 15% 29.92 in 10.0 mi WNW 15.0 mph - 0.00 in   Clear
10:53 AM 57.9 °F - 10.0 °F 15% 29.89 in 10.0 mi West 20.7 mph 25.3 mph N/A   Clear
11:53 AM 60.1 °F - 10.0 °F 14% 29.88 in 10.0 mi WNW 18.4 mph 29.9 mph N/A   Clear
12:53 PM 62.1 °F - 10.0 °F 13% 29.82 in 10.0 mi West 10.4 mph 23.0 mph N/A   Clear
1:53 PM 61.0 °F - 9.0 °F 13% 29.82 in 10.0 mi WNW 13.8 mph 21.9 mph N/A   Clear
2:53 PM 63.0 °F - 9.0 °F 12% 29.78 in 10.0 mi West 19.6 mph 25.3 mph N/A   Clear
3:53 PM 64.0 °F - 7.0 °F 11% 29.74 in 10.0 mi NW 16.1 mph 21.9 mph N/A   Clear
4:53 PM 64.9 °F - 5.0 °F 9% 29.73 in 10.0 mi WNW 10.4 mph 24.2 mph N/A   Clear
5:53 PM 63.0 °F - 5.0 °F 10% 29.75 in 10.0 mi NW 13.8 mph 19.6 mph N/A   Clear
6:53 PM 53.1 °F - 10.9 °F 19% 29.81 in 10.0 mi West 9.2 mph - N/A   Clear
7:53 PM 46.4 °F 41.9 °F 15.8 °F 29% 29.91 in 10.0 mi WSW 9.2 mph - N/A   Clear
8:53 PM 43.0 °F 37.2 °F 17.1 °F 35% 29.81 in 10.0 mi West 10.4 mph - N/A   Clear
9:53 PM 41.0 °F 35.2 °F 18.0 °F 40% 29.79 in 10.0 mi West 9.2 mph - N/A   Clear
10:53 PM 42.1 °F 35.7 °F 17.1 °F 37% 29.78 in 10.0 mi West 11.5 mph - N/A   Clear
11:53 PM 41.0 °F 33.1 °F 27.0 °F 57% 29.79 in 10.0 mi North 15.0 mph 23.0 mph 0.00 in Rain Light Rain